Location: ActonStarParty
(42.4766°N, 71.4538°W)
Time: 13:34:04
(UTC-04:00)

Cosmos 1862 - Pass Details

Date: 19 April 2018
Orbit: 538 x 559 km, 82.5° (Epoch: 26 May)

Event Time Altitude Azimuth Distance (km) Brightness Sun altitude
Rises 22:12:32 0° 349° (N) 2,746 7.8 -25.8°
Reaches altitude 10° 22:14:43 10° 348° (NNW) 1,844 6.8 -26.0°
Enters shadow 22:17:52 51° 330° (NNW) 702 4.1 -26.4°
